CAPE
1962 1620 1704 1829 1897 1824 1664 1542 1429 1386 1339 1289 1296 1080 870 906 935 1003 1008 912 877 794 571 443 414 387 276 102 21 7 0 0
2127 1615 1891 2190 1483 1655 1612 1568 1476 1411 1322 1220 1109 960 746 713 741 877 959 801 626 547 496 419 374 302 246 51 43 1 2 0
1955 2165 1754 1728 1981 1876 1541 1708 1528 1429 1344 1220 1079 852 700 470 462 478 896 703 545 422 349 291 230 206 119 16 8 1 0 19
1508 1580 1391 1579 982 1570 1622 2219 1477 1399 1313 1214 1074 891 555 362 269 418 545 607 428 323 245 170 141 175 98 0 0 0 0 9
909 1300 1297 1206 752 1629 1754 2040 1553 1250 1178 1135 1370 1209 456 282 233 177 312 420 407 289 208 172 176 187 148 89 97 0 0 0
895 660 924 1249 1114 1328 1537 1300 1053 995 955 933 853 620 297 149 141 122 57 147 245 286 219 190 194 164 138 210 149 128 74 0
1158 1042 1183 1025 705 707 693 588 474 361 775 842 753 639 559 482 406 356 298 270 314 328 350 412 413 445 357 232 261 194 153 79
1417 1459 1455 1404 914 600 381 296 802 1137 1132 1350 1493 1335 948 844 528 523 542 630 637 482 517 546 705 704 654 524 388 311 224 169
1581 1676 1609 1217 875 1039 1396 1578 1604 1580 1777 1723 1232 1201 1324 1384 1361 1296 1225 1040 895 948 825 846 795 915 915 812 712 578 374 378
1811 1931 1698 1371 998 1459 1609 1434 1345 1294 1218 1147 1094 1137 1244 1256 1303 1294 1144 1147 823 898 759 685 514 563 463 487 713 758 738 698
1914 1936 1808 1502 1131 1250 1489 1301 1162 1195 1017 684 549 421 327 475 500 548 557 310 305 442 299 497 414 195 196 197 547 342 547 386
1781 1968 1794 1365 1320 1284 955 714 394 432 148 138 52 1 0 0 0 0 0 1 0 0 0 2 10 28 15 67 24 217 57 104
1839 1946 1853 1681 1330 737 473 176 0 0 0 0 0 0 0 0 0 0 0 0 0 0 0 0 0 0 0 0 0 0 0 3
1947 2012 1710 1416 711 718 78 40 0 0 0 0 0 0 0 0 0 0 0 0 0 0 0 0 0 0 16 0 0 0 0 0
1875 1586 1215 743 139 50 0 0 0 0 0 0 0 0 0 0 0 0 0 0 0 0 0 0 3 1 0 23 6 0 0 0
1042 729 491 272 323 0 0 0 0 0 0 0 0 0 0 0 0 0 0 0 0 0 0 0 7 0 0 34 3 12 0 0
621 445 202 0 0 0 0 0 0 0 0 0 0 0 0 0 0 0 0 0 0 0 0 0 0 8 11 25 29 14 6 3
5 0 0 0 0 0 0 0 0 0 0 0 0 0 0 0 0 0 0 0 0 0 0 0 0 0 0 19 16 12 9 15
0 0 0 0 0 0 0 0 0 0 0 0 0 0 0 0 0 0 0 0 0 0 0 0 0 0 0 0 0 3 21 33
0 0 0 0 0 0 0 0 0 0 0 0 0 0 0 0 0 0 0 0 0 0 0 0 0 0 0 0 3 26 31 14
CIN
-179 -198 -168 -129 -104 -118 -140 -148 -154 -157 -159 -156 -138 -157 -182 -155 -136 -105 -88 -91 -85 -87 -126 -151 -169 -187 -242 -314 -358 -344 -0 -0
-165 -222 -155 -88 -178 -149 -151 -153 -160 -166 -155 -156 -163 -178 -218 -220 -187 -134 -94 -109 -121 -114 -126 -153 -163 -187 -216 -355 -374 -109 -342 -0
-208 -161 -196 -174 -117 -119 -150 -111 -137 -147 -145 -153 -157 -191 -212 -257 -251 -227 -118 -134 -150 -163 -173 -187 -221 -233 -307 -455 -493 -165 -0 -358
-278 -263 -284 -215 -286 -170 -147 -60 -137 -123 -120 -119 -141 -170 -221 -258 -289 -219 -165 -132 -171 -196 -221 -263 -264 -217 -321 -0 -0 -0 -0 -446
-400 -302 -267 -261 -339 -169 -133 -83 -108 -131 -117 -104 -55 -83 -216 -256 -274 -306 -225 -182 -174 -218 -254 -266 -248 -234 -256 -294 -309 -0 -0 -0
-236 -377 -307 -213 -219 -183 -126 -132 -148 -139 -130 -114 -126 -164 -256 -319 -330 -327 -378 -294 -216 -190 -234 -242 -190 -205 -223 -166 -216 -250 -315 -0
-219 -170 -39 -35 -201 -248 -233 -243 -267 -279 -89 -61 -60 -65 -70 -71 -83 -95 -100 -117 -98 -84 -79 -63 -60 -52 -78 -127 -89 -151 -211 -245
-179 -47 -40 -53 -74 -99 -134 -275 -101 -29 -31 -16 -13 -11 -8 -22 -55 -42 -26 -12 -11 -29 -19 -13 -9 -2 -6 -10 -37 -62 -110 -153
-139 -28 -28 -38 -63 -116 -52 -19 -19 -14 -3 -1 -20 -13 -17 -10 -7 -9 -3 -1 -4 -5 -1 -0 -7 -1 -4 -5 -2 -8 -23 -33
-41 -31 -17 -26 -126 -31 -9 -26 -20 -7 -6 -7 -9 -6 -2 -6 -5 -3 -6 -1 -3 -0 -5 -15 -42 -35 -44 -37 -14 -6 -4 -4
-63 -36 -27 -29 -47 -27 -3 -5 -7 -7 -11 -19 -22 -38 -70 -46 -37 -21 -19 -52 -54 -13 -26 -16 -12 -94 -114 -120 -41 -70 -37 -42
-113 -32 -7 -22 -7 -2 -15 -13 -40 -30 -118 -142 -157 -75 -0 -0 -0 -0 -0 -0 -0 -0 -0 -6 -6 -38 -49 -203 -141 -108 -221 -103
-74 -30 -2 -0 -11 -28 -23 -65 -0 -1 -0 -0 -0 -0 -0 -0 -0 -0 -0 -0 -0 -0 -0 -0 -0 -0 -0 -0 -0 -0 -0 -2
-34 -9 -3 -0 -18 -6 -109 -72 -0 -0 -0 -0 -0 -0 -0 -0 -0 -0 -0 -0 -0 -0 -0 -0 -0 -0 -0 -0 -0 -0 -0 -0
-20 -25 -30 -46 -115 -86 -0 -0 -0 -0 -0 -0 -0 -0 -0 -0 -0 -0 -0 -0 -0 -0 -0 -0 -4 -2 -0 -0 -1 -0 -0 -0
-55 -79 -74 -74 -32 -0 -0 -0 -0 -0 -0 -0 -0 -0 -0 -0 -0 -0 -0 -0 -0 -0 -0 -0 -21 -1 -0 -3 -1 -4 -0 -0
-43 -53 -72 -0 -0 -0 -0 -0 -0 -0 -0 -0 -0 -0 -0 -0 -0 -0 -0 -0 -0 -0 -0 -0 -0 -31 -14 -0 -0 -15 -29 -0
-119 -0 -0 -0 -0 -0 -0 -0 -0 -0 -0 -0 -0 -0 -0 -0 -0 -0 -0 -0 -0 -0 -0 -0 -0 -0 -0 -26 -8 -4 -4 -1
-0 -0 -0 -0 -0 -0 -0 -0 -0 -0 -0 -0 -0 -0 -0 -0 -0 -0 -0 -0 -0 -0 -0 -0 -0 -0 -0 -0 -0 -10 -5 -0
-0 -0 -0 -0 -0 -0 -0 -0 -0 -0 -0 -0 -0 -0 -0 -0 -0 -0 -0 -0 -0 -0 -0 -0 -0 -0 -0 -0 -38 -61 -33 -25
Wind_Speed
17 12 12 12 11 11 11 11 11 11 13 13 13 13 13 13 12 11 11 12 11 10 10 9 8 5 9 11 nan nan nan nan
16 13 11 11 8 13 12 12 12 12 11 11 11 12 13 14 13 13 12 12 13 11 11 10 8 6 7 nan nan nan nan nan
15 13 10 11 12 11 11 10 11 13 14 15 13 11 11 11 13 14 15 14 14 15 15 15 13 12 10 nan nan nan nan nan
18 16 12 10 12 11 10 11 12 14 13 14 14 13 11 12 13 14 16 17 17 15 15 14 16 18 nan nan nan nan nan nan
17 17 17 15 12 10 11 13 15 15 16 15 15 13 11 12 13 13 14 15 18 18 18 19 18 18 19 nan nan nan nan nan
20 19 20 17 15 15 16 17 17 18 18 16 17 16 16 15 15 15 nan 18 19 20 21 21 22 21 22 22 24 25 nan nan
19 21 21 20 17 18 19 20 20 21 21 19 18 18 16 17 17 18 20 23 25 27 26 25 24 25 26 26 26 29 30 nan
24 22 21 22 21 18 17 22 22 21 20 18 19 19 17 17 20 21 23 26 27 28 30 30 29 31 27 29 31 34 35 37
23 22 20 22 20 20 19 20 20 20 20 17 17 19 20 21 24 27 28 29 30 31 31 33 32 32 31 35 36 35 37 41
25 22 18 19 20 22 25 25 25 25 25 25 24 24 24 27 27 28 30 33 35 36 37 38 37 37 33 34 39 42 42 44
30 27 22 21 23 26 28 31 29 30 29 27 28 31 34 34 35 35 36 39 40 40 40 41 40 41 42 42 43 43 43 47
29 28 27 27 29 28 31 32 32 30 31 31 nan nan nan nan nan nan nan nan nan nan nan nan nan nan nan nan nan 50 nan 51
28 33 31 31 29 27 30 29 nan nan nan nan nan nan nan nan nan nan nan nan nan nan nan nan nan nan nan nan nan nan nan nan
32 35 34 33 30 31 nan nan nan nan nan nan nan nan nan nan nan nan nan nan nan nan nan nan nan nan nan nan nan nan nan nan
40 38 36 36 36 nan nan nan nan nan nan nan nan nan nan nan nan nan nan nan nan nan nan nan nan nan nan nan nan nan nan nan
41 40 41 40 41 nan nan nan nan nan nan nan nan nan nan nan nan nan nan nan nan nan nan nan nan nan nan nan nan nan nan nan
36 40 42 nan nan nan nan nan nan nan nan nan nan nan nan nan nan nan nan nan nan nan nan nan nan nan nan nan nan nan nan nan
nan nan nan nan nan nan nan nan nan nan nan nan nan nan nan nan nan nan nan nan nan nan nan nan nan nan nan nan nan nan nan nan
nan nan nan nan nan nan nan nan nan nan nan nan nan nan nan nan nan nan nan nan nan nan nan nan nan nan nan nan nan nan nan nan
nan nan nan nan nan nan nan nan nan nan nan nan nan nan nan nan nan nan nan nan nan nan nan nan nan nan nan nan nan nan nan nan
Wind_Direction
294 290 297 297 310 313 318 316 317 311 303 309 316 321 326 334 342 339 340 340 334 332 328 323 320 316 307 310 nan nan nan nan
289 286 281 311 310 315 314 309 305 296 301 306 318 328 333 336 339 340 345 346 338 328 328 325 320 316 295 nan nan nan nan nan
273 278 283 298 303 312 315 304 297 297 308 317 314 308 318 319 323 338 344 344 338 334 329 329 334 339 337 nan nan nan nan nan
297 290 276 268 273 281 292 276 272 280 286 312 312 314 316 317 331 339 347 344 342 338 330 329 327 318 nan nan nan nan nan nan
282 286 287 284 286 281 270 260 266 275 290 290 302 298 301 300 304 313 318 327 313 316 317 311 309 306 306 nan nan nan nan nan
277 267 270 278 270 282 281 275 267 277 289 293 292 292 301 306 307 310 nan 305 307 307 304 305 307 302 299 299 298 294 nan nan
280 272 267 272 272 270 275 278 282 289 295 301 297 297 302 299 303 302 304 307 310 309 305 300 298 298 295 294 292 294 292 nan
277 280 281 284 283 287 282 280 281 285 292 297 299 298 298 298 299 304 301 300 300 300 298 295 295 293 293 298 298 295 294 291
281 283 283 285 293 287 283 281 281 281 285 282 287 297 296 299 301 301 301 302 301 296 293 294 291 292 300 296 294 295 294 294
285 286 286 283 283 280 278 280 275 274 272 273 271 277 291 295 293 291 294 296 296 297 296 295 296 293 288 285 291 295 298 297
286 285 285 276 269 266 269 270 268 265 267 270 273 277 279 283 284 281 278 278 278 279 283 287 285 286 289 291 289 286 285 284
285 280 278 268 267 262 261 261 260 265 270 273 nan nan nan nan nan nan nan nan nan nan nan nan nan nan nan nan nan 288 nan 287
272 279 276 275 270 266 261 260 nan nan nan nan nan nan nan nan nan nan nan nan nan nan nan nan nan nan nan nan nan nan nan nan
268 270 271 270 269 266 nan nan nan nan nan nan nan nan nan nan nan nan nan nan nan nan nan nan nan nan nan nan nan nan nan nan
273 271 269 265 268 nan nan nan nan nan nan nan nan nan nan nan nan nan nan nan nan nan nan nan nan nan nan nan nan nan nan nan
264 270 269 266 268 nan nan nan nan nan nan nan nan nan nan nan nan nan nan nan nan nan nan nan nan nan nan nan nan nan nan nan
261 265 267 nan nan nan nan nan nan nan nan nan nan nan nan nan nan nan nan nan nan nan nan nan nan nan nan nan nan nan nan nan
nan nan nan nan nan nan nan nan nan nan nan nan nan nan nan nan nan nan nan nan nan nan nan nan nan nan nan nan nan nan nan nan
nan nan nan nan nan nan nan nan nan nan nan nan nan nan nan nan nan nan nan nan nan nan nan nan nan nan nan nan nan nan nan nan
nan nan nan nan nan nan nan nan nan nan nan nan nan nan nan nan nan nan nan nan nan nan nan nan nan nan nan nan nan nan nan nan